Flag for U.S.A. Weather past 2 weeks in Sunrise, Florida, U.S.A.

Now
54 °F

Passing clouds.


Feels Like: 53 °F
Forecast: 56 / 71 °F
Wind: 6 mph from North

Location: Fort Lauderdale Executive Airport

Current Time: Jan 29, 2015 at 2:28:31 AM

Latest Report: Jan 29, 2015 at 1:53 AM


Visibility: 10 mi

Pressure: 30.19 "Hg

Humidity: 80%

Dew point: 48 °F

Location of SunriseLocation

Historic Weather in Sunrise — Graph

°F

Sunrise temperature yesterday

Maximum temperature yesterday: 68 °F (at 2:53 PM)
Minimum temperature yesterday: 52 °F (at 6:53 AM)
Average temperature yesterday: 59 °F

Past Weeks' High & Low Weather Summary

 TemperatureHumidityPressure
High80 °F (Jan 21, 11:53 AM)100% (Jan 14, 1:53 AM)30.21 "Hg (Jan 14, 1:53 AM)
Low49 °F (Jan 25, 5:53 AM)23% (Jan 27, 2:53 PM)29.85 "Hg (Jan 26, 1:53 PM)
Average67 °F71%30.05 "Hg
* Reported Jan 14 12:53 AM — Jan 29 12:53 AM, Sunrise, Weather by CustomWeather, © 2014

Note: Actual official high and low records may vary slightly from our data, if they occured in-between our weather recording intervals... More about our weather records

Advertising

Sunrise weather history for previous 24 hours

 ConditionsComfort  
Time TempWeatherWind HumidityBarometerVisibility
12:53 AM
Jan 29
54 °FPassing clouds.7 mph80%30.19 "Hg10 mi
11:53 PM
Jan 28
54 °FPassing clouds.6 mph80%30.19 "Hg10 mi
10:53 PM55 °FClear.5 mph74%30.19 "Hg10 mi
9:53 PM56 °FClear.8 mph67%30.20 "Hg10 mi
8:53 PM57 °FClear.5 mph55%30.21 "Hg10 mi
7:53 PM58 °FClear.6 mph43%30.21 "Hg10 mi
6:53 PM60 °FClear.7 mph38%30.19 "Hg10 mi
5:53 PM62 °FPassing clouds.12 mph32%30.15 "Hg10 mi
4:53 PM67 °FSunny.8 mph25%30.14 "Hg10 mi
3:53 PM68 °FSunny.8 mph24%30.12 "Hg10 mi
2:53 PM68 °FSunny.12 mph25%30.11 "Hg10 mi
1:53 PM66 °FSunny.7 mph26%30.13 "Hg10 mi
12:53 PM65 °FSunny.7 mph29%30.15 "Hg10 mi
11:53 AM64 °FSunny.10 mph30%30.18 "Hg10 mi
10:53 AM62 °FSunny.9 mph35%30.19 "Hg10 mi
9:53 AM60 °FSunny.14 mph36%30.18 "Hg10 mi
8:53 AM58 °FSunny.10 mph46%30.16 "Hg10 mi
7:53 AM54 °FSunny.7 mph59%30.14 "Hg10 mi
6:53 AM52 °FClear.7 mph69%30.12 "Hg10 mi
5:53 AM53 °FClear.6 mph72%30.10 "Hg10 mi
4:53 AM54 °FClear.6 mph83%30.07 "Hg10 mi
3:53 AM57 °FClear.6 mph81%30.06 "Hg10 mi
2:53 AM59 °FPassing clouds.8 mph84%30.06 "Hg10 mi
Weather by CustomWeather, © 2014

See weather overviewHow to use our weather pages